EW4652 Weather Reports


Display with metric or nautical units.
time (UTC)temp
F
wind
direction
speed
MPH
gust
MPH
rain 1hr
in
rain 24hr
in
rain mn
in
humidity
%
barometer
mb
20260509074544 43 300 1.0 3.0 0.00 0.00 0.00 56 1004.5
20260509073036 46 300 1.0 3.0 0.00 0.00 0.00 51 1004.5
20260509071529 52 300 0.0 3.0 0.00 0.00 0.00 44 1004.6
20260509070025 54 300 2.0 5.0 0.00 0.00 0.00 41 1004.8
20260509064521 56 300 3.0 6.0 0.00 0.00 0.00 40 1005.0
20260509063023 56 311 3.0 8.0 0.00 0.00 0.00 39 1005.0
20260509061515 56 311 2.0 5.0 0.00 0.00 0.00 39 1005.0
20260509060012 58 308 3.0 6.0 0.00 0.00 0.00 37 1004.9
20260509054509 58 330 4.0 8.0 0.00 0.00 0.00 37 1005.0
20260509053007 59 300 4.0 9.0 0.00 0.00 0.00 37 1004.9
20260509051504 59 330 5.0 10.0 0.00 0.00 0.00 36 1005.0
20260509050004 60 307 7.0 11.0 0.00 0.00 0.00 35 1005.0
20260509044502 61 329 7.0 11.0 0.00 0.00 0.00 35 1004.9
20260509043103 60 332 5.0 10.0 0.00 0.00 0.00 36 1004.8
20260509041600 60 303 4.0 9.0 0.00 0.00 0.00 37 1004.8
20260509040100 61 317 3.0 8.0 0.00 0.00 0.00 37 1004.7
20260509034559 61 328 3.0 6.0 0.00 0.00 0.00 36 1004.8
20260509033058 61 300 2.0 8.0 0.00 0.00 0.00 36 1004.7
20260509031618 61 321 2.0 5.0 0.00 0.00 0.00 37 1004.6
20260509030100 60 308 1.0 3.0 0.00 0.00 0.00 37 1004.4
20260509024556 61 308 1.0 2.0 0.00 0.00 0.00 36 1004.3
20260509023101 63 306 1.0 4.0 0.00 0.00 0.00 34 1004.3
20260509021555 63 304 3.0 5.0 0.00 0.00 0.00 34 1004.1
20260509020055 65 309 6.0 10.0 0.00 0.00 0.00 32 1004.1
20260509014554 66 296 4.0 8.0 0.00 0.00 0.00 31 1003.9
20260509013059 66 320 5.0 9.0 0.00 0.00 0.00 30 1003.8
20260509011553 65 281 2.0 5.0 0.00 0.00 0.00 33 1003.8
20260509010052 65 281 3.0 5.0 0.00 0.00 0.00 32 1003.6
20260509004554 67 280 5.0 11.0 0.00 0.00 0.00 31 1003.5
20260509003052 69 289 7.0 12.0 0.00 0.00 0.00 29 1003.5
20260509001549 69 292 7.0 14.0 0.00 0.00 0.00 27 1003.5
20260508234545 71 280 13.0 20.0 0.00 0.00 0.00 26 1003.8
20260508233045 71 279 13.0 21.0 0.00 0.00 0.00 25 1003.9
20260508231549 72 303 12.0 17.0 0.00 0.00 0.00 25 1004.0
20260508230042 72 268 10.0 15.0 0.00 0.00 0.00 27 1004.2
20260508224540 71 298 17.0 24.0 0.00 0.00 0.00 26 1004.4
20260508223040 72 328 12.0 20.0 0.00 0.00 0.00 22 1004.4
20260508221539 72 305 13.0 20.0 0.00 0.00 0.00 26 1004.6
20260508220041 71 297 11.0 18.0 0.00 0.00 0.00 27 1004.7
20260508214534 70 279 11.0 18.0 0.00 0.00 0.00 27 1004.9
20260508213044 71 297 12.0 22.0 0.00 0.00 0.00 26 1005.1
20260508211534 71 279 5.0 17.0 0.00 0.00 0.00 24 1005.2
20260508210033 72 267 10.0 20.0 0.00 0.00 0.00 22 1005.4
20260508204528 71 296 11.0 19.0 0.00 0.00 0.00 23 1005.6
20260508203029 71 286 15.0 28.0 0.00 0.00 0.00 25 1005.9
20260508201524 71 287 10.0 24.0 0.00 0.00 0.00 26 1006.1
20260508200020 71 280 11.0 21.0 0.00 0.00 0.00 23 1006.5
20260508194519 71 252 11.0 19.0 0.00 0.00 0.00 26 1006.5
20260508193016 70 266 7.0 25.0 0.00 0.00 0.00 26 1006.8
20260508191523 69 267 10.0 21.0 0.00 0.00 0.00 25 1007.3
20260508190013 69 321 6.0 12.0 0.00 0.00 0.00 24 1007.3
20260508184514 70 290 13.0 19.0 0.00 0.00 0.00 28 1007.6
20260508183009 69 321 5.0 22.0 0.00 0.00 0.00 25 1007.9
20260508181520 68 257 11.0 19.0 0.00 0.00 0.00 24 1008.1
20260508180006 67 271 6.0 17.0 0.00 0.00 0.00 26 1008.3
20260508174507 68 268 9.0 18.0 0.00 0.00 0.00 25 1008.6
20260508173200 67 276 8.0 16.0 0.00 0.00 0.00 31 1008.9
20260508171558 67 303 11.0 22.0 0.00 0.00 0.00 29 1009.3
20260508170056 67 242 10.0 18.0 0.00 0.00 0.00 27 1009.4
20260508164555 66 265 14.0 19.0 0.00 0.00 0.00 26 1009.6
20260508163047 66 287 8.0 18.0 0.00 0.00 0.00 30 1009.8
20260508161545 65 238 11.0 18.0 0.00 0.00 0.00 27 1010.1
20260508160042 64 283 14.0 20.0 0.00 0.00 0.00 27 1010.3
20260508154549 63 263 7.0 16.0 0.00 0.00 0.00 32 1010.5
20260508153035 63 248 12.0 17.0 0.00 0.00 0.00 31 1010.7
20260508151531 62 232 11.0 18.0 0.00 0.00 0.00 31 1010.8
20260508150028 61 225 13.0 17.0 0.00 0.00 0.00 32 1011.0
20260508144525 60 197 10.0 18.0 0.00 0.00 0.00 34 1011.1
20260508143022 58 220 13.0 20.0 0.00 0.00 0.00 33 1011.4
20260508141525 57 214 14.0 20.0 0.00 0.00 0.00 34 1011.3
20260508140014 55 192 11.0 16.0 0.00 0.00 0.00 37 1011.3
20260508134512 54 234 13.0 16.0 0.00 0.00 0.00 38 1011.4
20260508133006 53 229 12.0 15.0 0.00 0.00 0.00 39 1011.5
20260508131503 51 222 9.0 12.0 0.00 0.00 0.00 42 1011.6
20260508130058 49 194 8.0 12.0 0.00 0.00 0.00 46 1011.7
20260508124553 47 207 6.0 10.0 0.00 0.00 0.00 47 1011.7
20260508123049 45 202 5.0 8.0 0.00 0.00 0.00 48 1011.6
20260508121544 43 209 3.0 5.0 0.00 0.00 0.00 51 1011.6
20260508120047 41 161 0.0 0.0 0.00 0.00 0.00 57 1011.5
20260508114534 39 161 0.0 2.0 0.00 0.00 0.00 58 1011.7
20260508113031 38 161 2.0 4.0 0.00 0.00 0.00 54 1011.6
20260508111534 38 161 3.0 5.0 0.00 0.00 0.00 53 1011.6
20260508110025 38 171 2.0 3.0 0.00 0.00 0.00 53 1011.5
20260508104523 37 171 3.0 4.0 0.00 0.00 0.00 53 1011.6
20260508103029 37 172 2.0 4.0 0.00 0.00 0.00 53 1011.7
20260508101533 38 171 3.0 4.0 0.00 0.00 0.00 52 1011.7
20260508100018 38 172 2.0 3.0 0.00 0.00 0.00 53 1011.8
20260508094514 38 172 0.0 1.0 0.00 0.00 0.00 53 1011.9
20260508093012 39 172 0.0 2.0 0.00 0.00 0.00 51 1011.8
20260508091508 40 172 2.0 4.0 0.00 0.00 0.00 50 1011.8
20260508090008 41 173 2.0 3.0 0.00 0.00 0.00 48 1012.0
20260508084506 42 172 2.0 4.0 0.00 0.00 0.00 46 1012.0
20260508083005 43 167 5.0 6.0 0.00 0.00 0.00 45 1012.2
20260508081505 44 156 3.0 8.0 0.00 0.00 0.00 44 1012.1
20260508080007 44 142 4.0 9.0 0.00 0.00 0.00 44 1012.1